Ruggero Valentini

Olheiro - Frosinone
22 Fev 2027
Segunda-feira
Processo

Personalidade

Adaptabilidade (14) Ambição (9) Controvérsia (2) Lealdade (14) Pressão (19) Profissionalismo (7) Espírito Esportivo (6) Temperamento (5)

Perfil

Estilo de Treinamento Democrático
Licença Nacional B
Determinação 4
Gestão de Pessoas 9
Motivação 11
Disciplina 11
Satisfação no Trabalho
59%
Fadiga
0%
Função Olheiro
Salário 86.0K p/s
Contrato 14.03.2029

Desempenho

Comportamento Bom
Eficácia do Treinamento
18%
Desenvolvimento do Jogador
65%
Prevenção de Lesões
45%
Implementação Tática
45%

Eventos Recentes

Participou de uma reunião de recrutamento agora
Recomendou um alvo de transferência agora
Recomendou um alvo de transferência agora
Recomendou um alvo de transferência agora
Avaliou um jogador agora
Avaliou um jogador 7d atrás
Observou uma partida 7d atrás
Avaliou um jogador 7d atrás

Monitorando agora

104
Jogador Clube Status Habilidade Confiança Observado Última observação Último voto
Marcos López San Martín Ativo 133 / 133 40% 3 21.02.2027 -
Vinicius Tobias Shakhtar Ativo 135 / 147 40% 4 21.02.2027 -
Akos Botka Haladas Ativo 134 / 127 40% 3 21.02.2027 -
Luke Thomas Leicester City Ativo 130 / 123 40% 2 18.02.2027 -
Christopher Wooh Spartak Moscow Ativo 122 / 121 40% 4 18.02.2027 -
Franco Ibarra Rosario Central Ativo 126 / 142 40% 4 18.02.2027 -
Christian Makoun Levski Ativo 132 / 137 40% 3 14.02.2027 -
Volodymyr Brazhko Dynamo Kyiv Ativo 126 / 127 40% 3 14.02.2027 -
Valeriy Bondar Shakhtar Ativo 121 / 140 40% 3 12.02.2027 -
Nicolás Valentini Alavés Ativo 124 / 132 40% 1 12.02.2027 -
Lukas Mai Lugano Ativo 126 / 117 40% 2 08.02.2027 -
Oliver Sørensen Parma Ativo 125 / 133 40% 1 08.02.2027 -
Medon Berisha Lecce Ativo 127 / 134 40% 1 03.02.2027 -
Matías Galarza Talleres Ativo 134 / 135 40% 3 01.02.2027 -
Juan Carlos Portillo River Plate Ativo 133 / 128 40% 4 01.02.2027 -
Lorenzo Pirola Olympiacos Ativo 142 / 125 40% 1 29.01.2027 -
Federico Navarro Rosario Central Ativo 135 / 136 40% 5 17.01.2027 -
Lautaro Di Lollo Boca Juniors Ativo 124 / 128 40% 2 17.01.2027 -
Santiago González Tigre Ativo 131 / 120 40% 2 17.01.2027 -
Simone Santoro Modena Ativo 129 / 131 40% 1 16.01.2027 -
Conrad Wallem Valerenga Ativo 125 / 120 40% 3 15.01.2027 -
Aarón Quiros Vélez Ativo 125 / 114 40% 2 15.01.2027 -
Ben Ahmed Kohili Paradou Ativo 99 / 110 40% 2 15.01.2027 -
Luca Maiorano Waasland-Beveren Ativo 96 / 109 40% 1 15.01.2027 -
Alejo Sarco Gijón Ativo 111 / 128 40% 1 15.01.2027 -
Emil Breivik Molde Ativo 137 / 118 40% 1 15.01.2027 -
Pedro Bicalho Qarabag Ativo 125 / 131 40% 1 13.01.2027 -
Henrik Heggheim Viking Ativo 122 / 131 40% 1 12.01.2027 -
Lorenzo Bernasconi Atalanta Ativo 123 / 128 40% 2 11.01.2027 -
Lautaro Blanco Boca Juniors Ativo 124 / 128 40% 1 11.01.2027 -
Santiago Núñez Estudiantes Ativo 125 / 110 40% 2 09.01.2027 -
Federico Gattoni Ascoli Ativo 121 / 129 40% 2 08.01.2027 -
Gastón Benedetti Estudiantes Ativo 128 / 129 40% 1 08.01.2027 -
Harry Ashfield Wrexham Ativo 88 / 95 40% 1 29.12.2026 -
Ruslan Myalkovskiy Lokomotiv Moscow Ativo 103 / 104 40% 1 29.12.2026 -
Ezequiel Gerez Chacarita Juniors Ativo 89 / 105 40% 3 28.12.2026 -
Daniel Braut Tromso Ativo 105 / 101 40% 1 28.12.2026 -
Filip Kaloč Ludogorets Ativo 122 / 128 40% 1 27.12.2026 -
Dinis Pinto Moreirense Ativo 124 / 131 40% 2 22.12.2026 -
César Pérez Defensa y Justicia Ativo 127 / 131 40% 1 22.12.2026 -
Emiliano Martínez Palmeiras Ativo 133 / 132 40% 1 22.12.2026 -
Marlon Gomes Shakhtar Ativo 131 / 140 40% 1 21.12.2026 -
Kauã Elias Shakhtar Ativo 129 / 131 40% 3 19.12.2026 -
Dmytro Kryskiv Shakhtar Ativo 129 / 111 40% 1 17.12.2026 -
Bendegúz Bolla Rapid Wien Ativo 122 / 131 40% 1 15.12.2026 -
Joaquín García Vélez Ativo 120 / 125 40% 1 15.12.2026 -
Dani Ángel Crawley Town Ativo 88 / 100 40% 2 13.12.2026 -
Santiago Sandoval Guadalajara Ativo 98 / 108 40% 1 13.12.2026 -
Tomáš Nemčík Rosenborg Ativo 125 / 113 40% 1 12.12.2026 -
Francisco Álvarez Argentinos Juniors Ativo 119 / 130 40% 1 12.12.2026 -
David Kalokoh Ajax Ativo 111 / 124 40% 2 10.12.2026 -
Anton Matković Hajduk Split Ativo 105 / 124 40% 1 10.12.2026 -
Donnell McNeilly Nottingham Forest Ativo 113 / 123 40% 1 09.12.2026 -
Abubakar Garba Nasarawa United Ativo 93 / 95 40% 2 07.12.2026 -
Borna Knezović Casarano Ativo 98 / 101 40% 1 06.12.2026 -
Alex Castiello AC Milan Ativo 94 / 107 40% 1 06.12.2026 -
Ciprian Coman Pandurii Ativo 113 / 107 40% 4 05.12.2026 -
Nikolay Zlatev Cherno More Ativo 102 / 104 40% 1 30.11.2026 -
Dimitris Rallis Legia Ativo 99 / 120 40% 1 27.11.2026 -
Tomás Romero Unión de Santa Fe Ativo 103 / 108 40% 1 27.11.2026 -
Roberto Iliev Slavia Sofia Ativo 89 / 101 40% 3 20.11.2026 -
Jalal Abdullai Molde Ativo 112 / 112 40% 3 20.11.2026 -
Bogdan Petrović TSC Ativo 102 / 118 40% 3 17.11.2026 -
Julian Hall New York Red Bulls Ativo 92 / 103 40% 1 17.11.2026 -
Marcel Reguła Zaglebie Ativo 96 / 124 40% 1 12.11.2026 -
Julián Vignolo Toulouse FC Ativo 101 / 117 40% 1 12.11.2026 -
Ezekiel Kwame Alladoh Philadelphia Union Ativo 109 / 112 40% 1 08.11.2026 -
Nicolás Marichal Dinamo Moscow Ativo 118 / 125 40% 1 04.11.2026 -
Magnus Mattsson FC Copenhagen Ativo 132 / 136 40% 1 04.11.2026 -
Luciano Inverso Rentistas Ativo 104 / 124 40% 3 28.10.2026 -
Alexander Lyng SonderjyskE Ativo 107 / 121 40% 1 28.10.2026 -
Luther Zwane Platinum Stars Ativo 107 / 112 40% 2 27.10.2026 -
Alagie Wally Veres Ativo 84 / 93 40% 1 25.10.2026 -
Franco Sassone Defensores Ativo 83 / 103 40% 1 22.10.2026 -
Ouseynou Sow Pro Vercelli Ativo 86 / 90 40% 1 22.10.2026 -
Csanád Vilmos Dénes Debrecen Ativo 105 / 97 40% 1 19.10.2026 -
Ephraim Yeboah Bristol City Ativo 94 / 92 40% 2 18.10.2026 -
Mohammed Sofo New York Red Bulls Ativo 102 / 108 40% 1 16.10.2026 -
Matheus Alves CSKA Moscow Ativo 131 / 122 40% 1 14.10.2026 -
Sergio Rondon Atletico Venezuela Ativo 88 / 112 40% 1 14.10.2026 -
Bruno Morales Cerro Ativo 91 / 111 40% 1 11.10.2026 -
Felipe Serrés Wanderers Ativo 97 / 117 40% 1 08.10.2026 -
Adalberto Carrasquilla Pumas UNAM Ativo 121 / 111 40% 1 07.10.2026 -
Taiyo Koga Kashiwa Reysol Ativo 141 / 142 40% 1 07.10.2026 -
Tojiro Kubo Kashiwa Reysol Ativo 120 / 120 40% 1 06.10.2026 -
Sergio Barreto Pachuca Ativo 128 / 126 40% 1 06.10.2026 -
Lukáš Červ Viktoria Plzen Ativo 127 / 138 40% 1 06.10.2026 -
Axel Frugone Defensor Sporting Ativo 104 / 125 40% 1 14.09.2026 -
Lucas Agazzi Defensor Sporting Ativo 112 / 112 40% 1 14.09.2026 -
Sergio Quintero La Equidad Ativo 141 / 154 40% 1 12.09.2026 -
Juan Rodríguez Cagliari Ativo 120 / 135 40% 1 11.09.2026 -
Yacouba Meïté Plaza Colonia Ativo 102 / 94 40% 1 11.09.2026 -
Gonzalo Bordón Independiente Ativo 103 / 124 40% 1 11.09.2026 -
Viery Fiorentina Ativo 122 / 124 40% 1 09.09.2026 -
Nacer Tielemans Mouscron Ativo 135 / 131 40% 1 09.09.2026 -
Pedro Bravo FC Midtjylland Ativo 128 / 126 40% 1 09.09.2026 -
Yaimar Medina Racing Genk Ativo 119 / 129 40% 1 08.09.2026 -
Ignacio Perruzzi San Lorenzo Ativo 124 / 119 40% 1 08.09.2026 -
Sean Fusire Sheffield Wednesday Ativo 103 / 95 40% 1 07.09.2026 -
Mbekezeli Mbokazi Chicago Fire Ativo 119 / 127 40% 1 07.09.2026 -
Halam Loboa Independiente Medellin Ativo 124 / 117 40% 1 07.09.2026 -
Alberto Cerri Cesena Ativo 123 / 117 76% 1 24.08.2026 Aprovar
Mattia Mannini Juve Stabia Ativo 110 / 116 76% 1 17.08.2026 Aprovar
Francesco Coppola Pisa Ativo 109 / 114 76% 1 03.08.2026 Aprovar